Location: Mohawk View
(42.7837°N, 73.7885°W)
Time: 02:06:50
(UTC+00:00)

DELTA 2 R/B (1) - Pass Details

Date: 17 June 2021
Orbit: 789 x 803 km, 39.6° (Epoch: 02 August)

Event Time Altitude Azimuth Distance (km) Brightness Sun altitude
Exits shadow 08:29:11 - 263° (W) 2,931 6.0 -7.7°
Reaches altitude 10° 08:30:46 10° 261° (W) 2,348 5.5 -7.4°
Maximum altitude 08:36:14 64° 181° (S) 873 3.7 -6.7°
Drops below altitude 10° 08:41:43 10° 101° (E) 2,355 6.6 -5.9°
Sets 08:44:13 0° 98° (E) 3,287 7.5 -5.6°
